Location: San Pelegr�n
(42.1868°N, 0.0079°E)
Time: 07:18:14
(UTC+00:00)

SL-16 R/B - Pass Details

Date: 24 January 2020
Orbit: 841 x 848 km, 71.0° (Epoch: 17 February)

Event Time Altitude Azimuth Distance (km) Brightness Sun altitude
Rises 17:21:52 0° 344° (NNW) 3,417 5.3 -4.0°
Reaches altitude 10° 17:24:46 10° 358° (N) 2,477 4.5 -4.5°
Maximum altitude 17:29:26 25° 53° (NE) 1,634 3.2 -5.3°
Drops below altitude 10° 17:34:03 10° 108° (ESE) 2,462 4.2 -6.1°
Sets 17:36:55 0° 121° (ESE) 3,392 5.0 -6.6°
